Tracking 18852 objects as of 24-Nov-2017
HD Live streaming from Space Station
objects crossing your sky now

RELAY 1 (A-15)

Track RELAY 1 (A-15) now!
10-day predictions
RELAY 1 (A-15) is classified as:


NORAD ID: 503
Int'l Code: 1962-068A
Perigee: 1,332.0 km
Apogee: 7,439.8 km
Inclination: 47.5 °
Period: 185.1 minutes
Semi major axis: 10756 km
RCS: 0.9602 m2 (medium)
Launch date: December 13, 1962
Source: United States (US)
Launch site: AIR FORCE EASTERN TEST RANGE (AFETR)
aabbcc
Your satellite tracking list
Your tracking list is empty




NASA's NSSDC Master Catalog

Two Line Element Set (TLE):
1   503U 62068A   17327.77729336 -.00000028 +00000-0 +00000-0 0  9995
2   503 047.5010 106.4963 2838999 026.6457 079.9306 07.78161604562012
Source of the keplerian elements: AFSPC